TimeCDT,TemperatureF,Dew PointF,Humidity,Sea Level PressureIn,VisibilityMPH,Wind Direction,Wind SpeedMPH,Gust SpeedMPH,PrecipitationIn,Events,Conditions,WindDirDegrees,DateUTC
12:35 AM,69.8,69.8,100,29.91,10.0,SSW,3.5,-,N/A,,Clear,200,2013-07-24 05:35:00
12:55 AM,69.8,69.8,100,29.89,10.0,SSW,3.5,-,N/A,,Clear,200,2013-07-24 05:55:00
1:15 AM,69.8,69.8,100,29.89,10.0,SSW,4.6,-,N/A,,Clear,210,2013-07-24 06:15:00
1:35 AM,69.8,69.8,100,29.88,10.0,SSW,4.6,-,N/A,,Clear,210,2013-07-24 06:35:00
1:55 AM,69.8,69.8,100,29.87,10.0,SW,5.8,-,N/A,,Clear,220,2013-07-24 06:55:00
2:15 AM,69.8,69.8,100,29.88,10.0,Calm,Calm,-,N/A,,Partly Cloudy,0,2013-07-24 07:15:00
2:35 AM,69.8,69.8,100,29.87,10.0,Calm,Calm,-,N/A,,Scattered Clouds,0,2013-07-24 07:35:00
2:55 AM,69.8,69.8,100,29.87,10.0,Calm,Calm,-,N/A,,Mostly Cloudy,0,2013-07-24 07:55:00
3:15 AM,69.8,69.8,100,29.86,10.0,SSW,3.5,-,N/A,,Mostly Cloudy,200,2013-07-24 08:15:00
3:35 AM,69.8,69.8,100,29.87,10.0,SW,3.5,-,N/A,,Mostly Cloudy,220,2013-07-24 08:35:00
3:55 AM,69.8,69.8,100,29.87,10.0,SSW,4.6,-,N/A,,Unknown,210,2013-07-24 08:55:00
4:15 AM,69.8,69.8,100,29.86,10.0,Calm,Calm,-,N/A,,Mostly Cloudy,0,2013-07-24 09:15:00
4:35 AM,69.8,69.8,100,29.86,10.0,Calm,Calm,-,N/A,,Unknown,0,2013-07-24 09:35:00
4:55 AM,69.8,69.8,100,29.87,10.0,Calm,Calm,-,N/A,,Overcast,0,2013-07-24 09:55:00
5:15 AM,69.8,69.8,100,29.88,7.0,SSW,3.5,-,N/A,,Overcast,210,2013-07-24 10:15:00
5:35 AM,69.8,69.8,100,29.88,4.0,SW,3.5,-,N/A,,Unknown,230,2013-07-24 10:35:00
5:55 AM,69.8,69.8,100,29.89,3.0,Calm,Calm,-,N/A,,Overcast,0,2013-07-24 10:55:00
6:15 AM,69.8,69.8,100,29.90,3.0,Calm,Calm,-,N/A,,Overcast,0,2013-07-24 11:15:00
6:35 AM,69.8,69.8,100,29.89,0.5,Calm,Calm,-,N/A,,Unknown,0,2013-07-24 11:35:00
6:55 AM,69.8,69.8,100,29.90,1.5,Calm,Calm,-,N/A,,Overcast,0,2013-07-24 11:55:00
7:15 AM,71.6,69.8,94,29.90,6.0,Calm,Calm,-,N/A,,Unknown,0,2013-07-24 12:15:00
7:35 AM,71.6,69.8,94,29.90,10.0,Calm,Calm,-,N/A,,Overcast,0,2013-07-24 12:35:00
7:55 AM,73.4,69.8,88,29.91,10.0,Calm,Calm,-,N/A,,Unknown,0,2013-07-24 12:55:00
8:15 AM,73.4,69.8,88,29.91,10.0,WNW,3.5,-,N/A,,Overcast,290,2013-07-24 13:15:00
8:35 AM,73.4,69.8,88,29.92,10.0,Calm,Calm,-,N/A,,Unknown,0,2013-07-24 13:35:00
8:55 AM,73.4,69.8,88,29.92,10.0,Calm,Calm,-,N/A,,Overcast,0,2013-07-24 13:55:00
9:15 AM,73.4,69.8,88,29.93,10.0,Calm,Calm,-,N/A,,Overcast,0,2013-07-24 14:15:00
9:35 AM,75.2,69.8,83,29.93,10.0,West,3.5,-,N/A,,Overcast,280,2013-07-24 14:35:00
9:55 AM,75.2,69.8,83,29.93,10.0,WNW,3.5,-,N/A,,Mostly Cloudy,290,2013-07-24 14:55:00
10:15 AM,75.2,69.8,83,29.94,10.0,WNW,3.5,-,N/A,,Overcast,290,2013-07-24 15:15:00
10:35 AM,75.2,69.8,83,29.93,10.0,WNW,3.5,-,N/A,,Scattered Clouds,290,2013-07-24 15:35:00
10:55 AM,75.2,69.8,83,29.94,10.0,Calm,Calm,-,N/A,,Partly Cloudy,0,2013-07-24 15:55:00
11:15 AM,77.0,69.8,78,29.93,10.0,Calm,Calm,-,N/A,,Scattered Clouds,0,2013-07-24 16:15:00
11:35 AM,77.0,71.6,83,29.93,10.0,Calm,Calm,-,N/A,,Scattered Clouds,0,2013-07-24 16:35:00
11:55 AM,78.8,69.8,74,29.92,10.0,Calm,Calm,-,N/A,,Clear,0,2013-07-24 16:55:00
12:15 PM,78.8,71.6,78,29.92,10.0,WNW,3.5,-,N/A,,Clear,300,2013-07-24 17:15:00
12:35 PM,80.6,71.6,74,29.92,10.0,Calm,Calm,-,N/A,,Clear,0,2013-07-24 17:35:00
12:55 PM,78.8,69.8,74,29.92,10.0,NW,3.5,-,N/A,,Clear,310,2013-07-24 17:55:00
1:15 PM,80.6,69.8,70,29.92,10.0,WNW,3.5,-,N/A,,Clear,300,2013-07-24 18:15:00
1:35 PM,82.4,71.6,70,29.92,10.0,Variable,6.9,-,N/A,,Partly Cloudy,0,2013-07-24 18:35:00
1:55 PM,82.4,71.6,70,29.91,10.0,Variable,3.5,-,N/A,,Scattered Clouds,0,2013-07-24 18:55:00
2:15 PM,82.4,69.8,66,29.91,10.0,Calm,Calm,-,N/A,,Mostly Cloudy,0,2013-07-24 19:15:00
2:35 PM,82.4,69.8,66,29.90,10.0,Variable,3.5,-,N/A,,Mostly Cloudy,0,2013-07-24 19:35:00
2:55 PM,82.4,69.8,66,29.90,10.0,NW,8.1,-,N/A,,Mostly Cloudy,310,2013-07-24 19:55:00
3:15 PM,82.4,69.8,66,29.89,10.0,NNW,6.9,-,N/A,,Mostly Cloudy,330,2013-07-24 20:15:00
3:35 PM,82.4,69.8,66,29.89,10.0,NW,6.9,-,N/A,,Mostly Cloudy,320,2013-07-24 20:35:00
3:55 PM,84.2,69.8,62,29.88,10.0,North,5.8,-,N/A,,Scattered Clouds,360,2013-07-24 20:55:00
4:15 PM,82.4,69.8,66,29.88,10.0,NNW,6.9,-,N/A,,Clear,340,2013-07-24 21:15:00
4:35 PM,82.4,69.8,66,29.88,10.0,NNW,9.2,-,N/A,,Clear,330,2013-07-24 21:35:00
4:55 PM,82.4,68.0,62,29.88,10.0,Variable,6.9,-,N/A,,Clear,0,2013-07-24 21:55:00
5:15 PM,80.6,68.0,65,29.88,10.0,Calm,Calm,-,N/A,,Scattered Clouds,0,2013-07-24 22:15:00
5:35 PM,80.6,66.2,61,29.89,10.0,Calm,Calm,-,N/A,,Partly Cloudy,0,2013-07-24 22:35:00
5:55 PM,80.6,66.2,61,29.89,10.0,Calm,Calm,-,N/A,,Partly Cloudy,0,2013-07-24 22:55:00
6:15 PM,78.8,66.2,65,29.90,10.0,Variable,4.6,-,N/A,,Partly Cloudy,0,2013-07-24 23:15:00
6:35 PM,78.8,66.2,65,29.90,10.0,Variable,5.8,-,N/A,,Clear,0,2013-07-24 23:35:00
6:55 PM,77.0,64.4,65,29.91,10.0,North,5.8,-,N/A,,Clear,360,2013-07-24 23:55:00
7:15 PM,75.2,66.2,73,29.92,10.0,Variable,3.5,-,N/A,,Clear,0,2013-07-25 00:15:00
7:35 PM,75.2,66.2,73,29.93,10.0,Calm,Calm,-,N/A,,Clear,0,2013-07-25 00:35:00
7:55 PM,73.4,66.2,78,29.93,10.0,Calm,Calm,-,N/A,,Clear,0,2013-07-25 00:55:00
8:15 PM,73.4,66.2,78,29.93,10.0,North,3.5,-,N/A,,Clear,10,2013-07-25 01:15:00
8:35 PM,71.6,64.4,78,29.94,10.0,Calm,Calm,-,N/A,,Clear,0,2013-07-25 01:35:00
8:55 PM,71.6,64.4,78,29.94,10.0,Calm,Calm,-,N/A,,Clear,0,2013-07-25 01:55:00
9:15 PM,69.8,64.4,83,29.95,10.0,Calm,Calm,-,N/A,,Clear,0,2013-07-25 02:15:00
9:35 PM,69.8,62.6,78,29.95,10.0,Calm,Calm,-,N/A,,Clear,0,2013-07-25 02:35:00
9:55 PM,69.8,62.6,78,29.95,10.0,Calm,Calm,-,N/A,,Clear,0,2013-07-25 02:55:00
10:15 PM,68.0,62.6,83,29.95,10.0,Calm,Calm,-,N/A,,Clear,0,2013-07-25 03:15:00
10:35 PM,66.2,62.6,88,29.95,10.0,Calm,Calm,-,N/A,,Clear,0,2013-07-25 03:35:00
10:55 PM,64.4,62.6,94,29.95,10.0,Calm,Calm,-,N/A,,Clear,0,2013-07-25 03:55:00
11:15 PM,64.4,62.6,94,29.96,10.0,Calm,Calm,-,N/A,,Clear,0,2013-07-25 04:15:00
11:35 PM,64.4,62.6,94,29.96,10.0,Calm,Calm,-,N/A,,Clear,0,2013-07-25 04:35:00
11:55 PM,62.6,60.8,94,29.96,10.0,Calm,Calm,-,N/A,,Clear,0,2013-07-25 04:55:00